Regional Weather Roundup
Issued by NWS

Home | Current Version | Previous Version | Graphics & Text | Print | Product List | Glossary On
Versions: 1 2 3 4 5 6 7 8 9 10 11 12 13 14 15 16 17 18 19 20 21 22 23 24 25 26 27 28 29 30 31 32 33 34 35 36 37 38 39 40 41 42 43 44 45 46 47 48 49 50
101
ASUS45 KCYS 260210
RWRWY

WYOMING REGIONAL WEATHER ROUNDUP
NATIONAL WEATHER SERVICE CHEYENNE WY
800 PM MDT THU MAY 25 2017

NOTE:  "FAIR" INDICATES FEW OR NO CLOUDS BELOW 12,000 FEET
WITH NO SIGNIFICANT WEATHER AND/OR OBSTRUCTIONS TO VISIBILITY.

WYZ001-260300-
YELLOWSTONE NATIONAL PARK

CITY           SKY/WX    TMP DP  RH WIND       PRES   REMARKS
LK YELLOWSTONE   N/A     39  24  55 CALM      29.92R
W YELLOWSTONE  NOT AVBL

$$
WYZ002>013-054>058-071-098>099-260300-
NORTHERN WYOMING

CITY           SKY/WX    TMP DP  RH WIND       PRES   REMARKS
JACKSON        PTCLDY    52  21  30 N8        29.81R
CODY           CLOUDY    51  28  41 N10       29.85R
GREYBULL       CLOUDY    58  29  33 N18G28    29.79R
WORLAND        MOCLDY    57  30  35 N13       29.80R
SHERIDAN       FAIR      50  40  68 N8        29.81R
BUFFALO        MOCLDY    51  34  52 N20G26    29.82R
GILLETTE       MOCLDY    51  36  56 N13G22    29.80R
HULETT         MOCLDY    50  37  62 NW9       29.81R
NEWCASTLE      FAIR      52  34  50 NW23G33   29.81R

$$
WYZ014>020-022>026-101>103-260300-
CENTRAL WYOMING

CITY           SKY/WX    TMP DP  RH WIND       PRES   REMARKS
BIG PINEY      MOCLDY    49  23  36 NE12      29.83R
PINEDALE       CLOUDY    50  25  37 N13G20    29.85R
DUBOIS         CLOUDY    46  21  36 W8        29.83
LANDER         CLOUDY    53  31  42 NE10      29.81R
RIVERTON       FAIR      53  31  42 NE10      29.82R
CASPER         FAIR      51  37  58 NE16      29.82R
DOUGLAS        FAIR      54  37  52 N17G28    29.79R

$$
WYZ021-027>030-104>119-260300-
SOUTHERN WYOMING

CITY           SKY/WX    TMP DP  RH WIND       PRES   REMARKS
EVANSTON       FAIR      52  23  32 W8        29.85R
FORT BRIDGER   CLEAR     54  18  24 W12       29.88R
ROCK SPRINGS   FAIR      55  18  23 NW13      29.82R
DIXON            N/A     52  37  57 NE3       29.85R
RAWLINS        CLOUDY    54  26  34 W9        29.81R
SARATOGA       CLOUDY    52  30  43 NW7       29.85R
LARAMIE        CLOUDY    50  37  61 NW9       29.84R
CHEYENNE       FAIR      48  41  76 NW8       29.77F
TORRINGTON     FAIR      63  33  32 NW10      29.71R
PINE BLUFFS    FAIR      52  48  87 E3        29.74F

$$




USA.gov is the U.S. government's official web portal to all federal, state and local government web resources and services.